| time (UTC) | temp F | wind direction | speed knots | gust knots | rain 1hr in | rain 24hr in | rain mn in | humidity % | barometer mb |
| 20260507113451 | 46 | 258 | 0.0 | 0.0 | 0.08 | 0.00 | 0.91 | 91 | 970.0 |
| 20260507112450 | 46 | 261 | 0.0 | 0.0 | 0.08 | 0.00 | 0.87 | 91 | 970.0 |
| 20260507111455 | 46 | 256 | 0.0 | 0.0 | 0.08 | 0.00 | 0.87 | 90 | 970.0 |
| 20260507111450 | 46 | 256 | 0.0 | 0.0 | 0.08 | 0.00 | 0.87 | 90 | 970.0 |
| 20260507110448 | 46 | 259 | 0.0 | 0.0 | 0.08 | 0.00 | 0.87 | 91 | 970.0 |
| 20260507105449 | 46 | 257 | 0.0 | 0.0 | 0.08 | 0.00 | 0.83 | 91 | 970.0 |
| 20260507103442 | 46 | 282 | 0.0 | 0.0 | 0.08 | 0.00 | 0.83 | 91 | 970.0 |
| 20260507102441 | 46 | 283 | 0.0 | 0.0 | 0.08 | 0.00 | 0.79 | 91 | 970.0 |
| 20260507100435 | 46 | 283 | 0.0 | 0.0 | 0.08 | 0.00 | 0.79 | 91 | 970.0 |
| 20260507094427 | 46 | 276 | 0.0 | 0.0 | 0.08 | 0.00 | 0.75 | 91 | 969.0 |
| 20260507093426 | 46 | 277 | 5.2 | 0.0 | 0.08 | 0.00 | 0.75 | 91 | 969.0 |
| 20260507093421 | 46 | 277 | 0.0 | 0.0 | 0.08 | 0.00 | 0.75 | 91 | 969.0 |
| 20260507092405 | 46 | 284 | 0.0 | 0.0 | 0.08 | 0.00 | 0.71 | 91 | 969.0 |
| 20260507091406 | 46 | 286 | 0.0 | 0.0 | 0.08 | 0.00 | 0.71 | 91 | 969.0 |
| 20260507090357 | 46 | 282 | 0.0 | 0.0 | 0.08 | 0.00 | 0.71 | 91 | 969.0 |
| 20260507085357 | 46 | 275 | 0.0 | 0.0 | 0.08 | 0.00 | 0.71 | 91 | 968.0 |
| 20260507084832 | 47 | 275 | 0.0 | 0.0 | 0.08 | 0.00 | 0.67 | 91 | 968.0 |
| 20260507084358 | 47 | 275 | 0.0 | 0.0 | 0.08 | 0.00 | 0.67 | 91 | 968.0 |
| 20260507083354 | 47 | 269 | 0.0 | 0.0 | 0.12 | 0.00 | 0.67 | 91 | 968.0 |
| 20260507082355 | 47 | 268 | 0.0 | 0.0 | 0.12 | 0.00 | 0.67 | 91 | 968.0 |
| 20260507081353 | 48 | 262 | 0.0 | 0.0 | 0.12 | 0.00 | 0.63 | 91 | 968.0 |
| 20260507080342 | 48 | 266 | 0.0 | 0.0 | 0.12 | 0.00 | 0.63 | 91 | 968.0 |
| 20260507074334 | 48 | 266 | 0.0 | 0.0 | 0.12 | 0.00 | 0.59 | 91 | 967.0 |
| 20260507073331 | 48 | 267 | 0.0 | 0.0 | 0.12 | 0.00 | 0.55 | 91 | 967.0 |
| 20260507072329 | 48 | 264 | 0.0 | 0.0 | 0.12 | 0.00 | 0.55 | 91 | 967.0 |
| 20260507071329 | 48 | 282 | 0.0 | 0.0 | 0.12 | 0.00 | 0.51 | 91 | 967.0 |
| 20260507065319 | 48 | 279 | 0.0 | 0.0 | 0.12 | 0.00 | 0.51 | 91 | 967.0 |
| 20260507064318 | 48 | 257 | 0.0 | 0.0 | 0.12 | 0.00 | 0.47 | 91 | 967.0 |
| 20260507063313 | 49 | 271 | 0.0 | 0.0 | 0.16 | 0.00 | 0.47 | 91 | 966.0 |
| 20260507062313 | 49 | 270 | 0.0 | 0.0 | 0.16 | 0.00 | 0.47 | 92 | 966.0 |
| 20260507061301 | 49 | 266 | 0.0 | 0.0 | 0.16 | 0.00 | 0.43 | 92 | 966.0 |
| 20260507060256 | 49 | 265 | 0.0 | 0.0 | 0.16 | 0.00 | 0.35 | 91 | 966.0 |
| 20260507055256 | 49 | 281 | 0.0 | 0.0 | 0.16 | 0.00 | 0.35 | 91 | 966.0 |
| 20260507054256 | 49 | 280 | 0.0 | 0.0 | 0.16 | 0.00 | 0.35 | 91 | 966.0 |
| 20260507053253 | 50 | 282 | 0.0 | 0.0 | 0.16 | 0.00 | 0.32 | 92 | 966.0 |
| 20260507052254 | 50 | 281 | 0.0 | 0.0 | 0.16 | 0.00 | 0.32 | 92 | 966.0 |
| 20260507051254 | 50 | 282 | 0.0 | 0.0 | 0.16 | 0.00 | 0.28 | 92 | 966.0 |
| 20260507050252 | 50 | 283 | 0.0 | 0.0 | 0.16 | 0.00 | 0.24 | 92 | 965.0 |
| 20260507045226 | 50 | 282 | 0.0 | 0.0 | 0.16 | 0.00 | 0.24 | 92 | 965.0 |
| 20260507044227 | 50 | 281 | 0.0 | 0.0 | 0.16 | 0.00 | 0.20 | 92 | 965.0 |
| 20260507043614 | 50 | 281 | 0.0 | 0.0 | 0.04 | 0.00 | 0.16 | 92 | 965.0 |
| 20260507043225 | 50 | 281 | 0.0 | 0.0 | 0.04 | 0.00 | 0.16 | 92 | 965.0 |
| 20260507042226 | 50 | 280 | 0.0 | 0.0 | 0.04 | 0.00 | 0.12 | 92 | 965.0 |
| 20260507041207 | 50 | 281 | 0.0 | 0.0 | 0.04 | 0.00 | 0.08 | 92 | 965.0 |
| 20260507040203 | 51 | 279 | 0.0 | 0.0 | 0.04 | 0.00 | 0.04 | 92 | 965.0 |
| 20260507035204 | 51 | 280 | 0.0 | 0.0 | 0.04 | 0.00 | 0.04 | 92 | 965.0 |
| 20260507034211 | 51 | 279 | 0.0 | 0.0 | 0.04 | 0.00 | 0.04 | 92 | 965.0 |
| 20260507034205 | 51 | 279 | 0.0 | 0.0 | 0.04 | 0.00 | 0.04 | 92 | 965.0 |
| 20260507032203 | 51 | 279 | 0.0 | 0.0 | 0.00 | 0.00 | 0.00 | 92 | 964.0 |
| 20260507030201 | 52 | 279 | 0.0 | 0.0 | 0.00 | 0.00 | 0.00 | 91 | 964.0 |
| 20260507025202 | 52 | 279 | 0.0 | 0.0 | 0.00 | 0.00 | 0.00 | 91 | 964.0 |
| 20260507024204 | 53 | 280 | 0.0 | 0.0 | 0.00 | 0.00 | 0.00 | 91 | 964.0 |
| 20260507024159 | 53 | 280 | 0.0 | 0.0 | 0.00 | 0.00 | 0.00 | 91 | 964.0 |
| 20260507023137 | 53 | 282 | 0.0 | 0.0 | 0.00 | 0.00 | 0.00 | 90 | 964.0 |
| 20260507021136 | 53 | 282 | 0.0 | 0.0 | 0.00 | 0.00 | 0.00 | 90 | 964.0 |
| 20260507020138 | 53 | 279 | 0.0 | 0.0 | 0.00 | 0.00 | 0.00 | ||
| 20260507020133 | 53 | 279 | 0.0 | 0.0 | 0.00 | 0.00 | 0.00 | 89 | 964.0 |
| 20260507015139 | 53 | 0.0 | 0.0 | 0.00 | 0.00 | 0.00 | 89 | 964.0 | |
| 20260507015134 | 53 | 279 | 0.0 | 0.0 | 0.00 | 0.00 | 0.00 | 89 | 964.0 |
| 20260507014135 | 53 | 280 | 0.0 | 0.0 | 0.00 | 0.00 | 0.00 | 89 | 964.0 |
| 20260507013131 | 53 | 280 | 0.0 | 0.0 | 0.00 | 0.00 | 0.00 | 89 | 964.0 |
| 20260507012105 | 54 | 282 | 0.0 | 0.0 | 0.00 | 0.00 | 0.00 | 89 | 964.0 |
| 20260507011105 | 53 | 282 | 0.0 | 0.0 | 0.00 | 0.00 | 0.00 | 89 | 964.0 |
| 20260507010050 | 54 | 279 | 0.0 | 0.0 | 0.00 | 0.00 | 0.00 | 89 | 964.0 |
| 20260507005051 | 54 | 281 | 0.0 | 0.0 | 0.00 | 0.00 | 0.00 | 88 | 964.0 |
| 20260507004052 | 53 | 280 | 0.0 | 0.0 | 0.00 | 0.00 | 0.00 | 88 | 964.0 |
| 20260507003050 | 54 | 280 | 0.0 | 0.0 | 0.00 | 0.00 | 0.00 | 88 | 964.0 |
| 20260507002138 | 54 | 279 | 0.0 | 0.0 | 0.00 | 0.00 | 0.00 | 87 | 964.0 |
| 20260507002055 | 54 | 279 | 0.0 | 0.0 | 0.00 | 0.00 | 0.00 | 87 | 964.0 |
| 20260507002050 | 54 | 279 | 0.0 | 0.0 | 0.00 | 0.00 | 0.00 | 87 | 964.0 |
| 20260507001057 | 54 | 278 | 0.0 | 0.0 | 0.00 | 0.00 | 0.00 | 87 | 964.0 |
| 20260507001051 | 54 | 278 | 0.0 | 0.0 | 0.00 | 0.00 | 0.00 | 87 | 964.0 |
| 20260507000049 | 54 | 277 | 0.0 | 0.0 | 0.00 | 0.00 | 0.00 | 87 | 964.0 |
| 20260506235050 | 54 | 276 | 0.0 | 0.0 | 0.00 | 0.00 | 0.00 | 86 | 964.0 |
| 20260506233912 | 54 | 277 | 0.0 | 0.0 | 0.00 | 0.43 | 0.04 | 86 | 964.0 |
| 20260506232854 | 54 | 275 | 0.0 | 0.0 | 0.00 | 0.43 | 0.04 | 86 | 964.0 |
| 20260506231831 | 54 | 273 | 0.0 | 0.0 | 0.00 | 0.43 | 0.04 | 86 | 964.0 |
| 20260506230833 | 54 | 274 | 0.0 | 0.0 | 0.00 | 0.00 | 0.04 | 86 | 964.0 |
| 20260506230828 | 54 | 274 | 0.0 | 0.0 | 0.00 | 0.43 | 0.04 | 86 | 964.0 |
| 20260506225826 | 54 | 275 | 0.0 | 0.0 | 0.00 | 0.43 | 0.04 | 86 | 964.0 |
| 20260506223829 | 55 | 282 | 0.0 | 0.0 | 0.00 | 0.43 | 0.04 | 84 | 96.4 |
| 20260506223825 | 55 | 282 | 0.0 | 0.0 | 0.00 | 0.43 | 0.04 | 84 | 964.0 |
| 20260506222820 | 55 | 284 | 0.0 | 0.0 | 0.00 | 0.43 | 0.04 | 84 | 964.0 |
| 20260506221815 | 55 | 282 | 0.0 | 0.0 | 0.00 | 0.43 | 0.04 | 84 | 964.0 |
| 20260506220816 | 55 | 283 | 0.0 | 0.0 | 0.00 | 0.43 | 0.04 | 84 | 964.0 |
| 20260506214815 | 55 | 285 | 0.0 | 0.0 | 0.00 | 0.43 | 0.04 | 84 | 964.0 |
| 20260506211909 | 55 | 283 | 0.0 | 0.0 | 0.00 | 0.43 | 0.04 | 83 | 964.0 |
| 20260506211804 | 55 | 283 | 0.0 | 0.0 | 0.00 | 0.43 | 0.04 | 83 | 964.0 |
| 20260506205754 | 55 | 285 | 0.0 | 0.0 | 0.00 | 0.43 | 0.04 | 83 | 963.0 |
| 20260506204755 | 56 | 283 | 0.0 | 0.0 | 0.00 | 0.43 | 0.04 | 83 | 963.0 |
| 20260506203756 | 56 | 284 | 0.0 | 0.0 | 0.00 | 0.43 | 0.04 | 83 | 964.0 |
| 20260506202801 | 56 | 283 | 0.0 | 0.0 | 0.00 | 0.00 | 0.04 | 83 | 964.0 |
| 20260506202754 | 56 | 283 | 0.0 | 0.0 | 0.00 | 0.43 | 0.04 | 83 | 964.0 |
| 20260506201754 | 56 | 283 | 0.0 | 0.0 | 0.00 | 0.43 | 0.04 | 84 | 963.0 |
| 20260506200754 | 56 | 286 | 0.0 | 0.0 | 0.00 | 0.43 | 0.04 | 83 | 963.0 |
| 20260506195748 | 56 | 287 | 0.0 | 0.0 | 0.00 | 0.43 | 0.04 | 82 | 963.0 |
| 20260506192739 | 56 | 285 | 0.0 | 0.0 | 0.00 | 0.43 | 0.04 | 81 | 963.0 |
| 20260506191730 | 56 | 289 | 0.0 | 0.0 | 0.00 | 0.43 | 0.04 | 80 | 963.0 |
| 20260506190731 | 56 | 290 | 0.0 | 0.0 | 0.00 | 0.43 | 0.04 | 80 | 963.0 |
| 20260506185727 | 56 | 289 | 0.0 | 0.0 | 0.00 | 0.43 | 0.04 | 81 | 963.0 |
| 20260506184723 | 56 | 289 | 0.0 | 0.0 | 0.00 | 0.43 | 0.04 | 81 | 962.0 |
| 20260506183709 | 56 | 293 | 0.0 | 0.0 | 0.00 | 0.43 | 0.04 | 79 | 962.0 |
| 20260506182709 | 56 | 293 | 0.0 | 0.0 | 0.00 | 0.43 | 0.04 | 76 | 962.0 |
| 20260506182704 | 56 | 293 | 0.0 | 0.0 | 0.00 | 0.43 | 0.04 | 76 | 962.0 |
| 20260506181705 | 56 | 295 | 0.0 | 0.0 | 0.00 | 0.43 | 0.04 | 75 | 962.0 |
| 20260506180705 | 56 | 298 | 0.0 | 0.0 | 0.00 | 0.43 | 0.04 | 74 | 962.0 |
| 20260506175656 | 57 | 295 | 0.0 | 0.0 | 0.00 | 0.43 | 0.04 | 72 | 962.0 |
| 20260506174656 | 57 | 294 | 0.0 | 0.0 | 0.00 | 0.43 | 0.04 | 71 | 962.0 |
| 20260506173637 | 57 | 296 | 0.0 | 0.0 | 0.00 | 0.43 | 0.04 | 70 | 962.0 |
| 20260506172626 | 58 | 296 | 0.0 | 0.0 | 0.00 | 0.43 | 0.04 | 72 | 962.0 |
| 20260506171626 | 59 | 294 | 0.0 | 0.0 | 0.00 | 0.43 | 0.04 | 73 | 962.0 |
| 20260506170624 | 60 | 294 | 0.0 | 0.0 | 0.00 | 0.43 | 0.04 | 73 | 962.0 |
| 20260506165622 | 60 | 294 | 0.0 | 0.0 | 0.00 | 0.43 | 0.04 | 72 | 962.0 |
| 20260506164623 | 61 | 294 | 0.0 | 0.0 | 0.00 | 0.43 | 0.04 | 71 | 962.0 |
| 20260506163557 | 62 | 297 | 0.0 | 0.0 | 0.00 | 0.43 | 0.04 | 69 | 961.0 |
| 20260506162705 | 62 | 295 | 0.0 | 0.0 | 0.00 | 0.43 | 0.04 | 68 | 961.0 |
| 20260506162550 | 62 | 295 | 0.0 | 0.0 | 0.00 | 0.43 | 0.04 | 68 | 961.0 |
| 20260506161550 | 62 | 295 | 0.0 | 0.0 | 0.00 | 0.43 | 0.04 | 67 | 961.0 |
| 20260506160551 | 63 | 297 | 0.0 | 0.0 | 0.00 | 0.43 | 0.04 | 65 | 961.0 |
| 20260506155638 | 63 | 299 | 0.0 | 0.0 | 0.00 | 0.43 | 0.04 | 64 | 961.0 |
| 20260506155544 | 63 | 299 | 0.0 | 0.0 | 0.00 | 0.43 | 0.04 | 64 | 961.0 |
| 20260506154545 | 64 | 298 | 0.0 | 0.0 | 0.00 | 0.43 | 0.04 | 57 | 961.0 |
| 20260506153535 | 65 | 305 | 0.0 | 0.0 | 0.00 | 0.43 | 0.04 | 55 | 962.0 |
| 20260506152534 | 65 | 299 | 0.0 | 0.0 | 0.00 | 0.43 | 0.04 | 54 | 961.0 |
| 20260506151521 | 65 | 297 | 0.0 | 0.0 | 0.00 | 0.43 | 0.04 | 50 | 961.0 |
| 20260506150522 | 65 | 298 | 0.0 | 0.0 | 0.00 | 0.43 | 0.04 | 50 | 962.0 |
| 20260506145518 | 65 | 300 | 0.0 | 0.0 | 0.00 | 0.43 | 0.04 | 50 | 961.0 |
| 20260506144519 | 65 | 297 | 0.0 | 0.0 | 0.00 | 0.43 | 0.04 | 51 | 961.0 |
| 20260506143519 | 65 | 298 | 0.0 | 0.0 | 0.00 | 0.43 | 0.04 | 50 | 962.0 |
| 20260506142516 | 65 | 299 | 0.0 | 0.0 | 0.00 | 0.43 | 0.04 | 51 | 962.0 |
| 20260506141517 | 65 | 297 | 0.0 | 0.0 | 0.00 | 0.43 | 0.04 | 52 | 962.0 |
| 20260506140518 | 65 | 295 | 0.0 | 0.0 | 0.00 | 0.43 | 0.04 | 52 | 962.0 |
| 20260506135506 | 65 | 295 | 0.0 | 0.0 | 0.00 | 0.43 | 0.04 | 52 | 962.0 |
| 20260506133458 | 64 | 282 | 0.0 | 0.0 | 0.00 | 0.43 | 0.04 | 51 | 962.0 |
| 20260506131432 | 65 | 283 | 0.0 | 0.0 | 0.00 | 0.43 | 0.04 | 50 | 962.0 |
| 20260506130423 | 65 | 280 | 0.0 | 0.0 | 0.00 | 0.43 | 0.04 | 50 | 962.0 |
| 20260506124412 | 66 | 281 | 0.0 | 0.0 | 0.00 | 0.43 | 0.04 | 47 | 962.0 |
| 20260506123413 | 67 | 282 | 0.0 | 0.0 | 0.00 | 0.43 | 0.04 | 44 | 962.0 |
| 20260506122410 | 69 | 284 | 0.0 | 0.0 | 0.00 | 0.43 | 0.04 | 43 | 962.0 |
| 20260506121409 | 70 | 283 | 0.0 | 0.0 | 0.00 | 0.43 | 0.04 | 45 | 962.0 |
| 20260506120410 | 70 | 286 | 0.0 | 0.0 | 0.00 | 0.43 | 0.04 | 45 | 962.0 |
| 20260506114409 | 70 | 284 | 0.0 | 0.0 | 0.00 | 0.43 | 0.04 | 46 | 962.0 |